Time,TemperatureF,DewpointF,PressureIn,WindDirection,WindDirectionDegrees,WindSpeedMPH,WindSpeedGustMPH,Humidity,HourlyPrecipIn,Conditions,Clouds,dailyrainin,SoftwareType,DateUTC
2013-05-31 00:00:00,68.3,58.6,30.19,East,87,0.0,0.0,71,0.00,,,0.00,VWS V14.01,2013-05-31 04:00:00,
2013-05-31 00:01:00,69.6,58.5,30.19,East,87,0.0,0.0,68,0.00,,,0.00,VWS V14.01,2013-05-31 04:01:00,
2013-05-31 00:02:00,68.2,58.5,30.19,East,87,0.0,0.0,71,0.00,,,0.00,VWS V14.01,2013-05-31 04:02:00,
2013-05-31 00:03:00,69.6,58.6,30.19,East,87,0.0,0.0,68,0.00,,,0.00,VWS V14.01,2013-05-31 04:03:00,
2013-05-31 00:04:00,69.6,58.6,30.19,East,87,0.0,0.0,68,0.00,,,0.00,VWS V14.01,2013-05-31 04:04:00,
2013-05-31 00:05:00,69.5,58.5,30.19,East,87,0.0,0.0,68,0.00,,,0.00,VWS V14.01,2013-05-31 04:05:00,
2013-05-31 00:06:00,68.1,58.5,30.19,East,87,0.0,0.0,71,0.00,,,0.00,VWS V14.01,2013-05-31 04:06:00,
2013-05-31 00:07:00,68.0,58.5,30.20,East,87,0.0,0.0,72,0.00,,,0.00,VWS V14.01,2013-05-31 04:07:00,
2013-05-31 00:08:00,68.0,58.5,30.20,East,87,0.0,0.0,72,0.00,,,0.00,VWS V14.01,2013-05-31 04:08:00,
2013-05-31 00:09:00,68.1,58.6,30.20,East,87,0.0,0.0,72,0.00,,,0.00,VWS V14.01,2013-05-31 04:09:00,
2013-05-31 00:10:00,69.5,58.7,30.19,East,87,0.0,0.0,69,0.00,,,0.00,VWS V14.01,2013-05-31 04:10:00,
2013-05-31 00:11:00,68.0,58.5,30.20,East,87,0.0,0.0,72,0.00,,,0.00,VWS V14.01,2013-05-31 04:11:00,
2013-05-31 00:12:00,68.1,58.7,30.20,East,87,0.0,0.0,72,0.00,,,0.00,VWS V14.01,2013-05-31 04:12:00,
2013-05-31 00:13:00,68.0,58.7,30.20,East,87,0.0,0.0,72,0.00,,,0.00,VWS V14.01,2013-05-31 04:13:00,
2013-05-31 00:14:00,67.8,58.5,30.20,East,87,0.0,0.0,72,0.00,,,0.00,VWS V14.01,2013-05-31 04:14:00,
2013-05-31 00:15:00,69.3,58.6,30.19,East,87,0.0,0.0,69,0.00,,,0.00,VWS V14.01,2013-05-31 04:15:00,
2013-05-31 00:16:00,67.8,58.7,30.20,East,87,0.0,0.0,72,0.00,,,0.00,VWS V14.01,2013-05-31 04:16:00,
2013-05-31 00:17:00,67.8,58.7,30.20,East,87,0.0,0.0,73,0.00,,,0.00,VWS V14.01,2013-05-31 04:17:00,
2013-05-31 00:18:00,67.7,58.6,30.20,East,87,0.0,0.0,73,0.00,,,0.00,VWS V14.01,2013-05-31 04:18:00,
2013-05-31 00:19:00,67.6,58.5,30.20,East,87,0.0,0.0,73,0.00,,,0.00,VWS V14.01,2013-05-31 04:19:00,
2013-05-31 00:20:00,69.0,58.4,30.19,East,87,0.0,0.0,69,0.00,,,0.00,VWS V14.01,2013-05-31 04:20:00,
2013-05-31 00:21:00,67.4,58.3,30.20,East,87,0.0,0.0,73,0.00,,,0.00,VWS V14.01,2013-05-31 04:21:00,
2013-05-31 00:22:00,67.6,58.6,30.20,East,87,0.0,0.0,73,0.00,,,0.00,VWS V14.01,2013-05-31 04:22:00,
2013-05-31 00:23:00,67.6,58.5,30.20,East,87,0.0,0.0,73,0.00,,,0.00,VWS V14.01,2013-05-31 04:23:00,
2013-05-31 00:24:00,67.4,58.3,30.19,East,87,0.0,0.0,73,0.00,,,0.00,VWS V14.01,2013-05-31 04:24:00,
2013-05-31 00:25:00,69.0,58.5,30.19,East,87,0.0,0.0,69,0.00,,,0.00,VWS V14.01,2013-05-31 04:25:00,
2013-05-31 00:26:00,67.4,58.4,30.19,East,87,0.0,0.0,73,0.00,,,0.00,VWS V14.01,2013-05-31 04:26:00,
2013-05-31 00:27:00,67.4,58.3,30.20,East,87,0.0,0.0,73,0.00,,,0.00,VWS V14.01,2013-05-31 04:27:00,
2013-05-31 00:28:00,67.5,58.4,30.19,East,87,0.0,0.0,73,0.00,,,0.00,VWS V14.01,2013-05-31 04:28:00,
2013-05-31 00:29:00,67.4,58.3,30.19,East,87,0.0,0.0,73,0.00,,,0.00,VWS V14.01,2013-05-31 04:29:00,
2013-05-31 00:30:00,69.0,58.6,30.19,East,87,0.0,0.0,69,0.00,,,0.00,VWS V14.01,2013-05-31 04:30:00,
2013-05-31 00:31:00,67.4,58.3,30.19,East,87,0.0,0.0,73,0.00,,,0.00,VWS V14.01,2013-05-31 04:31:00,
2013-05-31 00:32:00,67.4,58.3,30.19,East,87,0.0,0.0,72,0.00,,,0.00,VWS V14.01,2013-05-31 04:32:00,
2013-05-31 00:33:00,67.4,58.3,30.19,East,87,0.0,0.0,72,0.00,,,0.00,VWS V14.01,2013-05-31 04:33:00,
2013-05-31 00:34:00,67.4,58.2,30.19,East,87,0.0,0.0,72,0.00,,,0.00,VWS V14.01,2013-05-31 04:34:00,
2013-05-31 00:35:00,68.8,58.6,30.19,East,87,0.0,0.0,70,0.00,,,0.00,VWS V14.01,2013-05-31 04:35:00,
2013-05-31 00:36:00,67.4,58.2,30.19,East,87,0.0,0.0,72,0.00,,,0.00,VWS V14.01,2013-05-31 04:36:00,
2013-05-31 00:37:00,67.5,58.2,30.19,East,87,0.0,0.0,72,0.00,,,0.00,VWS V14.01,2013-05-31 04:37:00,
2013-05-31 00:38:00,67.4,58.1,30.19,East,87,0.0,0.0,72,0.00,,,0.00,VWS V14.01,2013-05-31 04:38:00,
2013-05-31 00:39:00,67.3,58.0,30.19,East,87,0.0,0.0,72,0.00,,,0.00,VWS V14.01,2013-05-31 04:39:00,
2013-05-31 00:40:00,68.6,58.5,30.19,East,87,0.0,0.0,70,0.00,,,0.00,VWS V14.01,2013-05-31 04:40:00,
2013-05-31 00:41:00,67.4,58.1,30.19,East,87,0.0,0.0,72,0.00,,,0.00,VWS V14.01,2013-05-31 04:41:00,
2013-05-31 00:42:00,67.4,58.1,30.19,East,87,0.0,0.0,72,0.00,,,0.00,VWS V14.01,2013-05-31 04:42:00,
2013-05-31 00:44:00,67.4,58.0,30.19,East,87,0.0,0.0,72,0.00,,,0.00,VWS V14.01,2013-05-31 04:44:00,
2013-05-31 00:45:00,68.5,58.5,30.19,East,87,0.0,0.0,70,0.00,,,0.00,VWS V14.01,2013-05-31 04:45:00,
2013-05-31 00:47:00,67.4,58.0,30.20,East,87,0.0,0.0,72,0.00,,,0.00,VWS V14.01,2013-05-31 04:47:00,
2013-05-31 00:48:00,67.4,57.9,30.20,East,87,0.0,0.0,72,0.00,,,0.00,VWS V14.01,2013-05-31 04:48:00,
2013-05-31 00:49:00,67.3,57.8,30.20,East,87,0.0,0.0,72,0.00,,,0.00,VWS V14.01,2013-05-31 04:49:00,
2013-05-31 00:50:00,68.5,58.7,30.19,East,87,0.0,0.0,71,0.00,,,0.00,VWS V14.01,2013-05-31 04:50:00,
2013-05-31 00:51:00,67.3,57.7,30.20,East,87,0.0,0.0,71,0.00,,,0.00,VWS V14.01,2013-05-31 04:51:00,
2013-05-31 00:52:00,67.4,57.7,30.20,East,87,0.0,0.0,71,0.00,,,0.00,VWS V14.01,2013-05-31 04:52:00,
2013-05-31 00:54:00,67.5,57.7,30.20,East,87,0.0,0.0,71,0.00,,,0.00,VWS V14.01,2013-05-31 04:54:00,
2013-05-31 00:55:00,67.4,57.6,30.20,East,87,0.0,0.0,71,0.00,,,0.00,VWS V14.01,2013-05-31 04:55:00,
2013-05-31 00:56:00,67.4,57.6,30.20,East,87,0.0,0.0,71,0.00,,,0.00,VWS V14.01,2013-05-31 04:56:00,
2013-05-31 00:58:00,67.5,57.7,30.19,North,356,0.0,2.1,71,0.00,,,0.00,VWS V14.01,2013-05-31 04:58:00,
2013-05-31 00:59:00,67.5,57.7,30.19,North,356,0.0,2.1,71,0.00,,,0.00,VWS V14.01,2013-05-31 04:59:00,
2013-05-31 01:00:00,67.5,57.7,30.19,North,350,3.0,3.9,71,0.00,,,0.00,VWS V14.01,2013-05-31 05:00:00,
2013-05-31 01:01:00,67.4,57.6,30.19,NNW,347,0.0,3.9,71,0.00,,,0.00,VWS V14.01,2013-05-31 05:01:00,
2013-05-31 01:06:00,67.4,57.6,30.20,NNW,347,0.0,3.9,71,0.00,,,0.00,VWS V14.01,2013-05-31 05:06:00,
2013-05-31 01:31:00,67.4,58.2,30.19,East,87,0.0,0.0,72,0.00,,,0.00,VWS V14.01,2013-05-31 05:31:00,
2013-05-31 01:36:00,67.3,58.0,30.20,East,87,0.0,0.0,72,0.00,,,0.00,VWS V14.01,2013-05-31 05:36:00,
2013-05-31 01:42:00,67.3,57.8,30.20,East,87,0.0,0.0,72,0.00,,,0.00,VWS V14.01,2013-05-31 05:42:00,
2013-05-31 01:47:00,67.4,57.7,30.20,East,87,0.0,0.0,71,0.00,,,0.00,VWS V14.01,2013-05-31 05:47:00,
2013-05-31 01:53:00,67.4,57.6,30.20,North,356,0.0,2.1,71,0.00,,,0.00,VWS V14.01,2013-05-31 05:53:00,
2013-05-31 01:58:00,67.5,57.7,30.20,NNW,347,0.0,3.9,71,0.00,,,0.00,VWS V14.01,2013-05-31 05:58:00,
2013-05-31 02:03:00,67.5,57.7,30.19,NNW,347,0.0,3.9,71,0.00,,,0.00,VWS V14.01,2013-05-31 06:03:00,
2013-05-31 02:08:00,67.4,57.5,30.19,NNW,347,0.0,3.9,70,0.00,,,0.00,VWS V14.01,2013-05-31 06:08:00,
2013-05-31 02:13:00,67.4,57.4,30.19,NNW,335,0.0,3.9,70,0.00,,,0.00,VWS V14.01,2013-05-31 06:13:00,
2013-05-31 02:19:00,67.4,57.3,30.20,NE,39,0.0,3.9,70,0.00,,,0.00,VWS V14.01,2013-05-31 06:19:00,
2013-05-31 02:24:00,67.4,57.4,30.20,NE,39,0.0,3.9,70,0.00,,,0.00,VWS V14.01,2013-05-31 06:24:00,
2013-05-31 02:29:00,67.3,57.3,30.20,NE,39,0.0,3.9,70,0.00,,,0.00,VWS V14.01,2013-05-31 06:29:00,
2013-05-31 02:34:00,67.3,57.5,30.20,NE,39,0.0,3.9,71,0.00,,,0.00,VWS V14.01,2013-05-31 06:34:00,
2013-05-31 02:39:00,67.0,57.3,30.20,NE,48,1.7,3.9,71,0.00,,,0.00,VWS V14.01,2013-05-31 06:39:00,
2013-05-31 02:44:00,66.8,57.2,30.20,NNE,17,3.0,3.9,71,0.00,,,0.00,VWS V14.01,2013-05-31 06:44:00,
2013-05-31 02:49:00,66.7,57.2,30.20,East,93,1.3,4.7,72,0.00,,,0.00,VWS V14.01,2013-05-31 06:49:00,
2013-05-31 02:54:00,66.7,57.2,30.20,NE,53,0.0,0.0,72,0.00,,,0.00,VWS V14.01,2013-05-31 06:54:00,
2013-05-31 02:59:00,66.6,57.1,30.20,NE,53,0.0,0.0,72,0.00,,,0.00,VWS V14.01,2013-05-31 06:59:00,
2013-05-31 03:04:00,66.6,57.1,30.20,NE,53,0.0,0.0,72,0.00,,,0.00,VWS V14.01,2013-05-31 07:04:00,
2013-05-31 03:09:00,66.6,57.1,30.20,NNE,32,0.0,1.7,71,0.00,,,0.00,VWS V14.01,2013-05-31 07:09:00,
2013-05-31 03:14:00,66.5,56.9,30.20,NNE,32,0.0,1.7,71,0.00,,,0.00,VWS V14.01,2013-05-31 07:14:00,
2013-05-31 03:19:00,66.5,57.0,30.20,NNE,32,0.0,1.7,72,0.00,,,0.00,VWS V14.01,2013-05-31 07:19:00,
2013-05-31 03:24:00,66.4,57.2,30.20,NNE,32,0.0,1.7,72,0.00,,,0.00,VWS V14.01,2013-05-31 07:24:00,
2013-05-31 03:29:00,66.2,57.1,30.20,NNE,30,0.0,3.2,72,0.00,,,0.00,VWS V14.01,2013-05-31 07:29:00,
2013-05-31 03:34:00,66.1,57.2,30.20,North,359,0.0,3.2,73,0.00,,,0.00,VWS V14.01,2013-05-31 07:34:00,
2013-05-31 03:39:00,66.1,57.3,30.20,North,359,0.0,3.2,73,0.00,,,0.00,VWS V14.01,2013-05-31 07:39:00,
2013-05-31 03:44:00,66.3,57.5,30.20,NNW,338,0.0,6.0,73,0.00,,,0.00,VWS V14.01,2013-05-31 07:44:00,
2013-05-31 03:49:00,66.4,57.5,30.20,North,359,0.0,6.0,73,0.00,,,0.00,VWS V14.01,2013-05-31 07:49:00,
2013-05-31 03:54:00,66.4,57.5,30.20,North,359,0.0,0.0,73,0.00,,,0.00,VWS V14.01,2013-05-31 07:54:00,
2013-05-31 03:59:00,66.4,57.5,30.20,North,359,0.0,0.0,73,0.00,,,0.00,VWS V14.01,2013-05-31 07:59:00,
2013-05-31 04:04:00,66.3,57.5,30.20,North,359,0.0,0.0,73,0.00,,,0.00,VWS V14.01,2013-05-31 08:04:00,
2013-05-31 04:09:00,66.3,57.5,30.20,North,359,0.0,0.0,73,0.00,,,0.00,VWS V14.01,2013-05-31 08:09:00,
2013-05-31 04:14:00,66.3,57.7,30.20,NNW,332,0.0,3.2,74,0.00,,,0.00,VWS V14.01,2013-05-31 08:14:00,
2013-05-31 04:19:00,66.3,57.8,30.20,NNW,338,0.0,3.2,74,0.00,,,0.00,VWS V14.01,2013-05-31 08:19:00,
2013-05-31 04:25:00,66.2,57.9,30.20,NNW,338,0.0,3.2,74,0.00,,,0.00,VWS V14.01,2013-05-31 08:25:00,
2013-05-31 04:30:00,66.3,58.0,30.20,NNW,338,0.0,3.2,75,0.00,,,0.00,VWS V14.01,2013-05-31 08:30:00,
2013-05-31 04:35:00,66.2,58.1,30.20,NNW,338,0.0,3.2,75,0.00,,,0.00,VWS V14.01,2013-05-31 08:35:00,
2013-05-31 04:40:00,66.1,58.0,30.20,NNW,338,0.0,3.2,75,0.00,,,0.00,VWS V14.01,2013-05-31 08:40:00,
2013-05-31 04:45:00,66.3,58.2,30.20,NNW,338,0.0,3.2,75,0.00,,,0.00,VWS V14.01,2013-05-31 08:45:00,
2013-05-31 04:50:00,66.2,58.0,30.20,NNW,338,0.0,3.2,75,0.00,,,0.00,VWS V14.01,2013-05-31 08:50:00,
2013-05-31 04:55:00,66.1,58.0,30.19,NNW,338,0.0,0.0,75,0.00,,,0.00,VWS V14.01,2013-05-31 08:55:00,
2013-05-31 05:00:00,66.1,57.8,30.19,NNW,338,0.0,0.0,75,0.00,,,0.00,VWS V14.01,2013-05-31 09:00:00,
2013-05-31 05:05:00,66.1,57.6,30.20,NNW,338,0.0,0.0,74,0.00,,,0.00,VWS V14.01,2013-05-31 09:05:00,
2013-05-31 05:10:00,66.1,57.5,30.20,NNW,338,0.0,0.0,74,0.00,,,0.00,VWS V14.01,2013-05-31 09:10:00,
2013-05-31 05:15:00,66.0,57.5,30.20,NNW,338,0.0,0.0,74,0.00,,,0.00,VWS V14.01,2013-05-31 09:15:00,
2013-05-31 05:20:00,65.9,57.1,30.19,NNW,338,0.0,0.0,73,0.00,,,0.00,VWS V14.01,2013-05-31 09:20:00,
2013-05-31 05:25:00,66.0,56.8,30.19,SSE,159,0.0,5.2,72,0.00,,,0.00,VWS V14.01,2013-05-31 09:25:00,
2013-05-31 05:30:00,65.8,56.3,30.19,SSE,159,0.0,5.2,71,0.00,,,0.00,VWS V14.01,2013-05-31 09:30:00,
2013-05-31 05:35:00,65.9,56.1,30.19,SSE,159,0.0,5.2,71,0.00,,,0.00,VWS V14.01,2013-05-31 09:35:00,
2013-05-31 05:40:00,65.7,55.4,30.20,SSE,159,0.0,5.2,69,0.00,,,0.00,VWS V14.01,2013-05-31 09:40:00,
2013-05-31 05:45:00,65.7,55.2,30.20,SE,129,2.8,5.2,69,0.00,,,0.00,VWS V14.01,2013-05-31 09:45:00,
2013-05-31 05:50:00,65.8,55.3,30.20,East,98,0.0,5.2,69,0.00,,,0.00,VWS V14.01,2013-05-31 09:50:00,
2013-05-31 05:55:00,65.8,55.3,30.20,East,98,0.0,0.0,69,0.00,,,0.00,VWS V14.01,2013-05-31 09:55:00,
2013-05-31 06:00:00,65.7,55.4,30.20,SE,132,3.9,5.4,69,0.00,,,0.00,VWS V14.01,2013-05-31 10:00:00,
2013-05-31 06:05:00,65.4,55.4,30.20,ESE,107,0.0,5.8,70,0.00,,,0.00,VWS V14.01,2013-05-31 10:05:00,
2013-05-31 06:11:00,65.5,55.5,30.20,East,98,0.0,5.8,70,0.00,,,0.00,VWS V14.01,2013-05-31 10:11:00,
2013-05-31 06:16:00,65.6,55.6,30.20,East,101,3.5,5.8,70,0.00,,,0.00,VWS V14.01,2013-05-31 10:16:00,
2013-05-31 06:21:00,65.5,55.1,30.20,East,90,2.2,5.8,69,0.00,,,0.00,VWS V14.01,2013-05-31 10:21:00,
2013-05-31 06:26:00,65.4,54.8,30.20,East,87,0.0,5.8,68,0.00,,,0.00,VWS V14.01,2013-05-31 10:26:00,
2013-05-31 06:31:00,65.5,54.9,30.20,East,101,0.0,5.8,69,0.00,,,0.00,VWS V14.01,2013-05-31 10:31:00,
2013-05-31 06:36:00,65.4,54.8,30.20,North,6,2.2,8.9,69,0.00,,,0.00,VWS V14.01,2013-05-31 10:36:00,
2013-05-31 06:41:00,65.4,54.9,30.20,NNW,340,4.7,8.9,69,0.00,,,0.00,VWS V14.01,2013-05-31 10:41:00,
2013-05-31 06:46:00,65.4,55.0,30.20,NNW,346,4.1,8.9,69,0.00,,,0.00,VWS V14.01,2013-05-31 10:46:00,
2013-05-31 06:51:00,65.3,54.9,30.21,NNW,345,4.3,8.9,69,0.00,,,0.00,VWS V14.01,2013-05-31 10:51:00,
2013-05-31 06:56:00,65.4,55.1,30.20,NNW,336,0.0,0.0,69,0.00,,,0.00,VWS V14.01,2013-05-31 10:56:00,
2013-05-31 07:01:00,65.4,55.1,30.20,North,6,4.5,8.8,69,0.00,,,0.00,VWS V14.01,2013-05-31 11:01:00,
2013-05-31 07:06:00,65.4,55.2,30.20,NNW,345,4.3,8.8,70,0.00,,,0.00,VWS V14.01,2013-05-31 11:06:00,
2013-05-31 07:11:00,65.4,55.2,30.20,NNE,22,0.0,8.8,70,0.00,,,0.00,VWS V14.01,2013-05-31 11:11:00,
2013-05-31 07:16:00,65.4,55.2,30.21,North,3,0.0,8.8,70,0.00,,,0.00,VWS V14.01,2013-05-31 11:16:00,
2013-05-31 07:21:00,65.7,55.5,30.21,ENE,77,0.0,8.8,70,0.00,,,0.00,VWS V14.01,2013-05-31 11:21:00,
2013-05-31 07:26:00,65.7,55.5,30.21,NNW,333,0.0,8.8,70,0.00,,,0.00,VWS V14.01,2013-05-31 11:26:00,
2013-05-31 07:31:00,65.9,55.7,30.21,North,8,0.0,8.8,70,0.00,,,0.00,VWS V14.01,2013-05-31 11:31:00,
2013-05-31 07:36:00,66.1,55.9,30.21,North,8,0.0,8.8,70,0.00,,,0.00,VWS V14.01,2013-05-31 11:36:00,
2013-05-31 07:41:00,66.1,55.9,30.21,ENE,62,0.0,8.8,70,0.00,,,0.00,VWS V14.01,2013-05-31 11:41:00,
2013-05-31 07:46:00,66.3,56.2,30.22,NNW,335,0.0,8.8,70,0.00,,,0.00,VWS V14.01,2013-05-31 11:46:00,
2013-05-31 07:51:00,66.3,56.2,30.21,NE,53,3.2,8.8,70,0.00,,,0.00,VWS V14.01,2013-05-31 11:51:00,
2013-05-31 07:56:00,66.5,56.2,30.21,East,83,4.5,9.3,69,0.00,,,0.00,VWS V14.01,2013-05-31 11:56:00,
2013-05-31 08:01:00,66.8,56.4,30.21,ESE,104,6.9,9.3,69,0.00,,,0.00,VWS V14.01,2013-05-31 12:01:00,
2013-05-31 08:06:00,66.9,56.3,30.21,West,270,1.1,13.2,69,0.00,,,0.00,VWS V14.01,2013-05-31 12:06:00,
2013-05-31 08:11:00,67.0,56.2,30.21,NE,41,4.3,13.2,68,0.00,,,0.00,VWS V14.01,2013-05-31 12:11:00,
2013-05-31 08:17:00,67.2,56.4,30.21,NNW,336,5.0,13.2,68,0.00,,,0.00,VWS V14.01,2013-05-31 12:17:00,
2013-05-31 08:22:00,67.5,56.4,30.21,NE,56,3.2,13.2,68,0.00,,,0.00,VWS V14.01,2013-05-31 12:22:00,
2013-05-31 08:27:00,67.6,56.3,30.21,North,357,6.7,14.7,67,0.00,,,0.00,VWS V14.01,2013-05-31 12:27:00,
2013-05-31 08:32:00,67.9,56.1,30.21,NNW,328,8.4,19.2,66,0.00,,,0.00,VWS V14.01,2013-05-31 12:32:00,
2013-05-31 08:37:00,68.0,56.3,30.21,NNW,338,0.0,19.2,66,0.00,,,0.00,VWS V14.01,2013-05-31 12:37:00,
2013-05-31 08:42:00,68.2,56.5,30.21,NNE,31,0.0,19.2,66,0.00,,,0.00,VWS V14.01,2013-05-31 12:42:00,
2013-05-31 08:47:00,68.5,56.3,30.22,NW,316,3.7,19.2,65,0.00,,,0.00,VWS V14.01,2013-05-31 12:47:00,
2013-05-31 08:52:00,68.8,56.5,30.21,NNW,346,9.5,19.2,65,0.00,,,0.00,VWS V14.01,2013-05-31 12:52:00,
2013-05-31 08:57:00,68.8,56.3,30.21,NNW,345,0.0,13.6,64,0.00,,,0.00,VWS V14.01,2013-05-31 12:57:00,
2013-05-31 09:02:00,69.0,56.3,30.21,NW,315,6.7,16.2,64,0.00,,,0.00,VWS V14.01,2013-05-31 13:02:00,
2013-05-31 09:07:00,69.1,56.4,30.21,WNW,292,5.2,16.2,64,0.00,,,0.00,VWS V14.01,2013-05-31 13:07:00,
2013-05-31 09:12:00,69.5,56.7,30.21,ENE,58,10.3,16.2,64,0.00,,,0.00,VWS V14.01,2013-05-31 13:12:00,
2013-05-31 09:17:00,69.5,56.5,30.20,NNE,14,0.0,17.9,63,0.00,,,0.00,VWS V14.01,2013-05-31 13:17:00,
2013-05-31 09:22:00,69.5,56.5,30.20,NNW,346,12.1,17.9,63,0.00,,,0.00,VWS V14.01,2013-05-31 13:22:00,
2013-05-31 09:27:00,70.0,56.7,30.20,North,350,2.4,17.9,63,0.00,,,0.00,VWS V14.01,2013-05-31 13:27:00,
2013-05-31 09:32:00,70.1,56.4,30.21,SSW,193,3.4,17.9,62,0.00,,,0.00,VWS V14.01,2013-05-31 13:32:00,
2013-05-31 09:37:00,70.3,56.6,30.20,NNE,22,1.3,17.9,62,0.00,,,0.00,VWS V14.01,2013-05-31 13:37:00,
2013-05-31 09:42:00,70.5,56.8,30.20,NE,41,0.0,17.9,62,0.00,,,0.00,VWS V14.01,2013-05-31 13:42:00,
2013-05-31 09:47:00,70.9,56.7,30.20,NE,42,0.0,17.9,61,0.00,,,0.00,VWS V14.01,2013-05-31 13:47:00,
2013-05-31 09:52:00,71.1,56.9,30.20,ENE,77,2.4,17.9,61,0.00,,,0.00,VWS V14.01,2013-05-31 13:52:00,
2013-05-31 09:57:00,71.2,56.8,30.20,NNW,330,7.1,13.2,60,0.00,,,0.00,VWS V14.01,2013-05-31 13:57:00,
2013-05-31 10:02:00,71.4,56.8,30.20,NE,34,5.6,14.0,60,0.00,,,0.00,VWS V14.01,2013-05-31 14:02:00,
2013-05-31 10:07:00,71.6,56.9,30.20,WNW,292,4.1,18.1,60,0.00,,,0.00,VWS V14.01,2013-05-31 14:07:00,
2013-05-31 10:13:00,71.6,57.2,30.20,North,10,1.9,18.1,60,0.00,,,0.00,VWS V14.01,2013-05-31 14:13:00,
2013-05-31 10:18:00,71.8,57.1,30.20,NW,326,6.9,18.1,60,0.00,,,0.00,VWS V14.01,2013-05-31 14:18:00,
2013-05-31 10:23:00,72.1,57.5,30.20,NW,323,0.0,18.1,60,0.00,,,0.00,VWS V14.01,2013-05-31 14:23:00,
2013-05-31 10:28:00,72.1,57.3,30.20,NNW,329,2.2,18.1,60,0.00,,,0.00,VWS V14.01,2013-05-31 14:28:00,
2013-05-31 10:33:00,72.3,57.2,30.20,North,354,0.0,18.1,59,0.00,,,0.00,VWS V14.01,2013-05-31 14:33:00,
2013-05-31 10:38:00,72.4,57.7,30.20,NE,34,3.0,18.1,60,0.00,,,0.00,VWS V14.01,2013-05-31 14:38:00,
2013-05-31 10:43:00,72.5,57.6,30.20,ENE,58,0.0,18.1,59,0.00,,,0.00,VWS V14.01,2013-05-31 14:43:00,
2013-05-31 10:48:00,72.8,58.3,30.20,NW,308,6.9,18.1,60,0.00,,,0.00,VWS V14.01,2013-05-31 14:48:00,
2013-05-31 10:53:00,73.2,58.5,30.20,NNW,332,0.0,18.1,60,0.00,,,0.00,VWS V14.01,2013-05-31 14:53:00,
2013-05-31 10:58:00,73.4,58.2,30.20,North,359,0.0,6.2,59,0.00,,,0.00,VWS V14.01,2013-05-31 14:58:00,
2013-05-31 11:03:00,73.7,58.4,30.20,NE,52,0.0,10.8,59,0.00,,,0.00,VWS V14.01,2013-05-31 15:03:00,
2013-05-31 11:08:00,74.1,58.7,30.20,NNW,346,0.0,10.8,59,0.00,,,0.00,VWS V14.01,2013-05-31 15:08:00,
2013-05-31 11:13:00,74.3,57.8,30.20,NE,44,6.5,15.7,56,0.00,,,0.00,VWS V14.01,2013-05-31 15:13:00,
2013-05-31 11:18:00,74.6,58.6,30.20,NW,325,8.2,15.7,58,0.00,,,0.00,VWS V14.01,2013-05-31 15:18:00,
2013-05-31 11:23:00,74.6,58.4,30.20,ENE,62,2.4,15.7,57,0.00,,,0.00,VWS V14.01,2013-05-31 15:23:00,
2013-05-31 11:28:00,74.6,58.2,30.20,NNE,15,5.0,15.7,57,0.00,,,0.00,VWS V14.01,2013-05-31 15:28:00,
2013-05-31 11:33:00,74.3,58.2,30.20,NNW,345,10.8,15.7,57,0.00,,,0.00,VWS V14.01,2013-05-31 15:33:00,
2013-05-31 11:38:00,74.4,58.2,30.20,WSW,245,4.1,15.7,57,0.00,,,0.00,VWS V14.01,2013-05-31 15:38:00,
2013-05-31 11:43:00,74.5,58.0,30.20,NNW,338,5.6,15.7,56,0.00,,,0.00,VWS V14.01,2013-05-31 15:43:00,
2013-05-31 11:48:00,74.8,59.2,30.20,NW,322,9.9,15.7,58,0.00,,,0.00,VWS V14.01,2013-05-31 15:48:00,
2013-05-31 11:53:00,75.1,58.8,30.20,NW,308,0.0,15.7,57,0.00,,,0.00,VWS V14.01,2013-05-31 15:53:00,
2013-05-31 11:58:00,75.3,59.2,30.20,ESE,122,1.9,10.3,57,0.00,,,0.00,VWS V14.01,2013-05-31 15:58:00,
2013-05-31 12:03:00,75.9,59.0,30.20,North,1,0.7,12.9,56,0.00,,,0.00,VWS V14.01,2013-05-31 16:03:00,
2013-05-31 12:08:00,75.9,58.6,30.20,South,190,4.5,14.4,55,0.00,,,0.00,VWS V14.01,2013-05-31 16:08:00,
2013-05-31 12:13:00,76.1,58.5,30.20,NNW,342,6.5,14.4,54,0.00,,,0.00,VWS V14.01,2013-05-31 16:13:00,
2013-05-31 12:18:00,76.2,58.1,30.20,East,100,6.7,18.1,54,0.00,,,0.00,VWS V14.01,2013-05-31 16:18:00,
2013-05-31 12:24:00,76.4,59.3,30.20,NW,316,0.6,18.1,55,0.00,,,0.00,VWS V14.01,2013-05-31 16:24:00,
2013-05-31 12:29:00,76.5,58.3,30.19,ENE,65,3.0,18.1,53,0.00,,,0.00,VWS V14.01,2013-05-31 16:29:00,
2013-05-31 12:34:00,76.9,58.3,30.19,NW,304,8.8,18.1,53,0.00,,,0.00,VWS V14.01,2013-05-31 16:34:00,
2013-05-31 12:39:00,77.1,58.1,30.19,WNW,292,0.0,18.1,52,0.00,,,0.00,VWS V14.01,2013-05-31 16:39:00,
2013-05-31 12:44:00,77.4,58.3,30.19,NW,322,0.0,18.1,52,0.00,,,0.00,VWS V14.01,2013-05-31 16:44:00,
2013-05-31 12:49:00,77.4,57.3,30.19,SSE,149,4.5,18.1,50,0.00,,,0.00,VWS V14.01,2013-05-31 16:49:00,
2013-05-31 12:54:00,77.2,56.6,30.19,NNE,13,0.7,3.5,49,0.00,,,0.00,VWS V14.01,2013-05-31 16:54:00,
2013-05-31 12:59:00,77.1,56.7,30.19,NNW,338,8.4,16.4,49,0.00,,,0.00,VWS V14.01,2013-05-31 16:59:00,
2013-05-31 13:04:00,77.1,57.0,30.19,SW,215,3.7,16.4,50,0.00,,,0.00,VWS V14.01,2013-05-31 17:04:00,
2013-05-31 13:09:00,77.2,57.4,30.19,NNW,328,10.3,16.4,50,0.00,,,0.00,VWS V14.01,2013-05-31 17:09:00,
2013-05-31 13:14:00,77.2,58.3,30.19,NNW,338,6.2,16.4,52,0.00,,,0.00,VWS V14.01,2013-05-31 17:14:00,
2013-05-31 13:19:00,77.3,57.3,30.18,NW,319,4.8,19.6,50,0.00,,,0.00,VWS V14.01,2013-05-31 17:19:00,
2013-05-31 13:24:00,77.4,56.9,30.18,NE,53,5.2,19.6,49,0.00,,,0.00,VWS V14.01,2013-05-31 17:24:00,
2013-05-31 13:29:00,77.5,56.6,30.18,West,276,0.0,23.3,48,0.00,,,0.00,VWS V14.01,2013-05-31 17:29:00,
2013-05-31 13:34:00,77.7,55.7,30.18,NW,323,5.8,23.3,47,0.00,,,0.00,VWS V14.01,2013-05-31 17:34:00,
2013-05-31 13:39:00,77.8,56.6,30.18,NNW,330,11.0,23.3,48,0.00,,,0.00,VWS V14.01,2013-05-31 17:39:00,
2013-05-31 13:44:00,78.0,57.0,30.18,NE,46,6.3,23.3,48,0.00,,,0.00,VWS V14.01,2013-05-31 17:44:00,
2013-05-31 13:49:00,77.9,57.1,30.18,ENE,69,0.0,23.3,49,0.00,,,0.00,VWS V14.01,2013-05-31 17:49:00,
2013-05-31 13:54:00,77.9,57.3,30.18,East,83,2.4,4.7,49,0.00,,,0.00,VWS V14.01,2013-05-31 17:54:00,
2013-05-31 13:59:00,78.1,57.6,30.17,NE,39,7.6,14.9,49,0.00,,,0.00,VWS V14.01,2013-05-31 17:59:00,
2013-05-31 14:04:00,78.3,58.0,30.17,WSW,240,1.7,14.9,50,0.00,,,0.00,VWS V14.01,2013-05-31 18:04:00,
2013-05-31 14:09:00,78.5,58.1,30.17,NNE,20,3.9,15.5,50,0.00,,,0.00,VWS V14.01,2013-05-31 18:09:00,
2013-05-31 14:14:00,78.5,57.9,30.17,West,260,7.3,15.5,49,0.00,,,0.00,VWS V14.01,2013-05-31 18:14:00,
2013-05-31 14:19:00,78.3,58.9,30.17,West,278,0.0,15.5,51,0.00,,,0.00,VWS V14.01,2013-05-31 18:19:00,
2013-05-31 14:25:00,78.4,57.9,30.16,NNW,345,0.0,15.5,49,0.00,,,0.00,VWS V14.01,2013-05-31 18:25:00,
2013-05-31 14:30:00,78.6,58.2,30.16,NW,322,0.0,15.5,50,0.00,,,0.00,VWS V14.01,2013-05-31 18:30:00,
2013-05-31 14:35:00,78.7,58.1,30.15,North,354,0.0,15.5,49,0.00,,,0.00,VWS V14.01,2013-05-31 18:35:00,
2013-05-31 14:40:00,78.6,57.8,30.15,NW,323,0.0,15.5,49,0.00,,,0.00,VWS V14.01,2013-05-31 18:40:00,
2013-05-31 14:45:00,78.7,58.3,30.15,WNW,294,0.0,15.5,50,0.00,,,0.00,VWS V14.01,2013-05-31 18:45:00,
2013-05-31 14:50:00,78.5,57.9,30.15,SSE,165,2.8,15.5,49,0.00,,,0.00,VWS V14.01,2013-05-31 18:50:00,
2013-05-31 14:55:00,78.8,57.7,30.15,South,190,1.3,7.3,48,0.00,,,0.00,VWS V14.01,2013-05-31 18:55:00,
2013-05-31 15:00:00,79.0,57.4,30.14,West,281,0.0,9.1,48,0.00,,,0.00,VWS V14.01,2013-05-31 19:00:00,
2013-05-31 15:05:00,79.0,57.6,30.14,SW,222,4.7,9.1,48,0.00,,,0.00,VWS V14.01,2013-05-31 19:05:00,
2013-05-31 15:10:00,78.6,58.0,30.14,North,6,2.4,9.1,49,0.00,,,0.00,VWS V14.01,2013-05-31 19:10:00,
2013-05-31 15:15:00,78.4,57.5,30.14,NNE,20,1.3,9.1,49,0.00,,,0.00,VWS V14.01,2013-05-31 19:15:00,
2013-05-31 15:20:00,78.5,57.2,30.13,North,0,1.1,13.4,48,0.00,,,0.00,VWS V14.01,2013-05-31 19:20:00,
2013-05-31 15:25:00,78.5,57.4,30.13,North,357,1.5,13.4,48,0.00,,,0.00,VWS V14.01,2013-05-31 19:25:00,
2013-05-31 15:30:00,78.9,57.2,30.13,WSW,257,7.5,13.4,47,0.00,,,0.00,VWS V14.01,2013-05-31 19:30:00,
2013-05-31 15:35:00,79.1,56.8,30.13,North,0,0.0,13.4,46,0.00,,,0.00,VWS V14.01,2013-05-31 19:35:00,
2013-05-31 15:40:00,79.1,56.6,30.13,NE,55,0.0,13.4,46,0.00,,,0.00,VWS V14.01,2013-05-31 19:40:00,
2013-05-31 15:45:00,78.7,56.2,30.12,NE,55,0.0,13.4,46,0.00,,,0.00,VWS V14.01,2013-05-31 19:45:00,
2013-05-31 15:50:00,78.7,56.8,30.12,SSW,193,0.0,13.4,47,0.00,,,0.00,VWS V14.01,2013-05-31 19:50:00,
2013-05-31 15:55:00,78.8,56.2,30.12,SSW,193,0.0,0.0,46,0.00,,,0.00,VWS V14.01,2013-05-31 19:55:00,
2013-05-31 16:00:00,78.9,56.0,30.12,SW,235,7.5,11.4,45,0.00,,,0.00,VWS V14.01,2013-05-31 20:00:00,
2013-05-31 16:05:00,79.4,55.2,30.11,WSW,256,1.7,14.0,43,0.00,,,0.00,VWS V14.01,2013-05-31 20:05:00,
2013-05-31 16:10:00,79.4,54.7,30.11,NW,309,0.0,14.0,42,0.00,,,0.00,VWS V14.01,2013-05-31 20:10:00,
2013-05-31 16:15:00,79.6,55.5,30.11,NW,316,0.0,14.0,44,0.00,,,0.00,VWS V14.01,2013-05-31 20:15:00,
2013-05-31 16:21:00,79.7,55.2,30.11,NW,318,6.7,14.0,43,0.00,,,0.00,VWS V14.01,2013-05-31 20:21:00,
2013-05-31 16:26:00,79.9,55.3,30.10,WNW,301,1.1,14.0,43,0.00,,,0.00,VWS V14.01,2013-05-31 20:26:00,
2013-05-31 16:31:00,80.1,54.8,30.10,WSW,249,0.0,14.0,42,0.00,,,0.00,VWS V14.01,2013-05-31 20:31:00,
2013-05-31 16:36:00,79.9,52.4,30.10,NNW,347,6.2,14.0,38,0.00,,,0.00,VWS V14.01,2013-05-31 20:36:00,
2013-05-31 16:41:00,80.1,54.4,30.10,WSW,257,0.0,14.0,41,0.00,,,0.00,VWS V14.01,2013-05-31 20:41:00,
2013-05-31 16:46:00,80.2,53.8,30.10,WSW,257,0.0,14.0,40,0.00,,,0.00,VWS V14.01,2013-05-31 20:46:00,
2013-05-31 16:51:00,80.4,54.2,30.10,WNW,295,8.2,14.0,40,0.00,,,0.00,VWS V14.01,2013-05-31 20:51:00,
2013-05-31 16:56:00,80.4,54.4,30.10,WNW,290,4.7,6.0,41,0.00,,,0.00,VWS V14.01,2013-05-31 20:56:00,
2013-05-31 17:01:00,80.6,53.4,30.09,WNW,284,0.0,9.9,39,0.00,,,0.00,VWS V14.01,2013-05-31 21:01:00,
2013-05-31 17:06:00,80.6,53.3,30.10,NW,323,6.5,9.9,39,0.00,,,0.00,VWS V14.01,2013-05-31 21:06:00,
2013-05-31 17:11:00,80.8,53.1,30.09,North,352,0.0,9.9,38,0.00,,,0.00,VWS V14.01,2013-05-31 21:11:00,
2013-05-31 17:16:00,81.0,53.8,30.09,NNE,17,3.2,9.9,39,0.00,,,0.00,VWS V14.01,2013-05-31 21:16:00,
2013-05-31 17:21:00,81.0,54.5,30.09,NW,323,7.6,12.3,40,0.00,,,0.00,VWS V14.01,2013-05-31 21:21:00,
2013-05-31 17:26:00,80.8,54.0,30.09,ESE,117,3.0,12.3,40,0.00,,,0.00,VWS V14.01,2013-05-31 21:26:00,
2013-05-31 17:31:00,80.5,54.2,30.09,NNW,340,6.2,12.3,40,0.00,,,0.00,VWS V14.01,2013-05-31 21:31:00,
2013-05-31 17:36:00,80.5,55.0,30.08,NW,323,5.4,12.3,42,0.00,,,0.00,VWS V14.01,2013-05-31 21:36:00,
2013-05-31 17:41:00,80.1,55.2,30.08,West,260,0.0,12.3,42,0.00,,,0.00,VWS V14.01,2013-05-31 21:41:00,
2013-05-31 17:46:00,80.1,55.5,30.08,NNW,332,0.0,12.3,43,0.00,,,0.00,VWS V14.01,2013-05-31 21:46:00,
2013-05-31 17:51:00,79.8,54.4,30.08,NNE,14,0.0,12.3,42,0.00,,,0.00,VWS V14.01,2013-05-31 21:51:00,
2013-05-31 17:56:00,79.3,54.4,30.08,SE,139,0.0,13.8,42,0.00,,,0.00,VWS V14.01,2013-05-31 21:56:00,
2013-05-31 18:01:00,79.3,55.8,30.09,NNE,14,1.9,13.8,44,0.00,,,0.00,VWS V14.01,2013-05-31 22:01:00,
2013-05-31 18:06:00,79.1,55.8,30.08,NE,52,4.8,13.8,45,0.00,,,0.00,VWS V14.01,2013-05-31 22:06:00,
2013-05-31 18:11:00,79.1,56.1,30.09,NE,42,1.7,16.8,45,0.00,,,0.00,VWS V14.01,2013-05-31 22:11:00,
2013-05-31 18:17:00,79.1,56.8,30.09,ENE,63,6.7,16.8,46,0.00,,,0.00,VWS V14.01,2013-05-31 22:17:00,
2013-05-31 18:22:00,79.1,56.3,30.09,North,359,6.7,16.8,46,0.00,,,0.00,VWS V14.01,2013-05-31 22:22:00,
2013-05-31 18:27:00,78.7,56.2,30.08,ESE,107,11.9,16.8,46,0.00,,,0.00,VWS V14.01,2013-05-31 22:27:00,
2013-05-31 18:32:00,78.4,56.5,30.08,NW,321,0.0,16.8,47,0.00,,,0.00,VWS V14.01,2013-05-31 22:32:00,
2013-05-31 18:37:00,78.4,56.6,30.09,NE,52,6.2,16.8,47,0.00,,,0.00,VWS V14.01,2013-05-31 22:37:00,
2013-05-31 18:42:00,78.5,57.7,30.08,ESE,122,0.0,19.4,49,0.00,,,0.00,VWS V14.01,2013-05-31 22:42:00,
2013-05-31 18:47:00,78.4,57.8,30.08,NE,37,0.0,19.4,49,0.00,,,0.00,VWS V14.01,2013-05-31 22:47:00,
2013-05-31 18:52:00,78.2,57.9,30.08,ENE,72,11.6,19.4,50,0.00,,,0.00,VWS V14.01,2013-05-31 22:52:00,
2013-05-31 18:57:00,77.9,58.1,30.08,East,89,5.4,19.6,50,0.00,,,0.00,VWS V14.01,2013-05-31 22:57:00,
2013-05-31 19:02:00,77.5,57.7,30.09,NW,311,1.7,19.6,50,0.00,,,0.00,VWS V14.01,2013-05-31 23:02:00,
2013-05-31 19:07:00,77.3,57.7,30.09,SSW,201,0.0,19.6,51,0.00,,,0.00,VWS V14.01,2013-05-31 23:07:00,
2013-05-31 19:12:00,77.3,57.9,30.09,East,90,0.0,19.6,51,0.00,,,0.00,VWS V14.01,2013-05-31 23:12:00,
2013-05-31 19:17:00,77.3,58.0,30.09,NE,34,0.0,19.6,51,0.00,,,0.00,VWS V14.01,2013-05-31 23:17:00,
2013-05-31 19:22:00,77.3,57.8,30.09,South,190,0.0,19.6,51,0.00,,,0.00,VWS V14.01,2013-05-31 23:22:00,
2013-05-31 19:27:00,77.3,57.9,30.09,NNW,336,0.0,19.6,51,0.00,,,0.00,VWS V14.01,2013-05-31 23:27:00,
2013-05-31 19:32:00,77.1,57.7,30.10,North,11,0.0,19.6,51,0.00,,,0.00,VWS V14.01,2013-05-31 23:32:00,
2013-05-31 19:37:00,77.1,57.6,30.10,NNE,13,0.0,19.6,51,0.00,,,0.00,VWS V14.01,2013-05-31 23:37:00,
2013-05-31 19:42:00,77.0,57.2,30.10,ESE,117,0.0,19.6,50,0.00,,,0.00,VWS V14.01,2013-05-31 23:42:00,
2013-05-31 19:47:00,77.0,57.5,30.10,ESE,117,0.0,19.6,51,0.00,,,0.00,VWS V14.01,2013-05-31 23:47:00,
2013-05-31 19:52:00,76.7,57.8,30.10,ESE,117,0.0,19.6,52,0.00,,,0.00,VWS V14.01,2013-05-31 23:52:00,
2013-05-31 19:57:00,76.3,58.2,30.10,ESE,117,0.0,0.0,54,0.00,,,0.00,VWS V14.01,2013-05-31 23:57:00,
2013-05-31 20:02:00,76.0,58.6,30.11,ESE,117,0.0,0.0,55,0.00,,,0.00,VWS V14.01,2013-06-01 00:02:00,
2013-05-31 20:07:00,75.4,58.6,30.10,ESE,117,0.0,0.0,56,0.00,,,0.00,VWS V14.01,2013-06-01 00:07:00,
2013-05-31 20:12:00,75.1,58.5,30.10,ESE,117,0.0,0.0,56,0.00,,,0.00,VWS V14.01,2013-06-01 00:12:00,
2013-05-31 20:17:00,74.8,58.6,30.10,ESE,117,0.0,0.0,57,0.00,,,0.00,VWS V14.01,2013-06-01 00:17:00,
2013-05-31 20:22:00,74.6,58.0,30.10,ESE,117,0.0,0.0,56,0.00,,,0.00,VWS V14.01,2013-06-01 00:22:00,
2013-05-31 20:28:00,74.2,57.6,30.10,ESE,117,0.0,0.0,56,0.00,,,0.00,VWS V14.01,2013-06-01 00:28:00,
2013-05-31 20:33:00,73.9,57.7,30.10,ESE,117,0.0,0.0,57,0.00,,,0.00,VWS V14.01,2013-06-01 00:33:00,
2013-05-31 20:38:00,73.8,57.3,30.10,ESE,117,0.0,0.0,56,0.00,,,0.00,VWS V14.01,2013-06-01 00:38:00,
2013-05-31 20:43:00,73.3,56.7,30.10,ESE,117,0.0,0.0,56,0.00,,,0.00,VWS V14.01,2013-06-01 00:43:00,
2013-05-31 20:48:00,73.1,56.7,30.09,ESE,117,0.0,0.0,56,0.00,,,0.00,VWS V14.01,2013-06-01 00:48:00,
2013-05-31 20:53:00,72.7,56.8,30.09,ESE,117,0.0,0.0,57,0.00,,,0.00,VWS V14.01,2013-06-01 00:53:00,
2013-05-31 20:58:00,72.6,57.0,30.09,ESE,117,0.0,0.0,58,0.00,,,0.00,VWS V14.01,2013-06-01 00:58:00,
2013-05-31 21:03:00,72.3,56.7,30.09,ESE,117,0.0,0.0,58,0.00,,,0.00,VWS V14.01,2013-06-01 01:03:00,
2013-05-31 21:08:00,72.2,56.9,30.10,ESE,117,0.0,0.0,58,0.00,,,0.00,VWS V14.01,2013-06-01 01:08:00,
2013-05-31 21:13:00,72.0,57.1,30.10,ESE,117,0.0,0.0,60,0.00,,,0.00,VWS V14.01,2013-06-01 01:13:00,
2013-05-31 21:18:00,71.8,57.3,30.10,ESE,117,0.0,0.0,60,0.00,,,0.00,VWS V14.01,2013-06-01 01:18:00,
2013-05-31 21:23:00,71.6,57.4,30.10,ESE,117,0.0,0.0,61,0.00,,,0.00,VWS V14.01,2013-06-01 01:23:00,
2013-05-31 21:28:00,71.3,57.2,30.10,ESE,117,0.0,0.0,61,0.00,,,0.00,VWS V14.01,2013-06-01 01:28:00,
2013-05-31 21:33:00,71.4,57.4,30.10,ESE,117,0.0,0.0,61,0.00,,,0.00,VWS V14.01,2013-06-01 01:33:00,
2013-05-31 21:38:00,71.3,57.3,30.10,ESE,117,0.0,0.0,61,0.00,,,0.00,VWS V14.01,2013-06-01 01:38:00,
2013-05-31 21:43:00,71.4,57.5,30.10,ESE,117,0.0,0.0,62,0.00,,,0.00,VWS V14.01,2013-06-01 01:43:00,
2013-05-31 21:48:00,71.3,57.6,30.10,ESE,117,0.0,0.0,62,0.00,,,0.00,VWS V14.01,2013-06-01 01:48:00,
2013-05-31 21:53:00,71.2,57.4,30.10,ESE,117,0.0,0.0,62,0.00,,,0.00,VWS V14.01,2013-06-01 01:53:00,
2013-05-31 21:58:00,71.1,57.4,30.10,ESE,117,0.0,0.0,62,0.00,,,0.00,VWS V14.01,2013-06-01 01:58:00,
2013-05-31 22:03:00,70.9,57.4,30.10,ESE,117,0.0,0.0,62,0.00,,,0.00,VWS V14.01,2013-06-01 02:03:00,
2013-05-31 22:08:00,70.7,57.6,30.09,ESE,117,0.0,0.0,63,0.00,,,0.00,VWS V14.01,2013-06-01 02:08:00,
2013-05-31 22:13:00,70.6,57.5,30.10,ESE,117,0.0,0.0,63,0.00,,,0.00,VWS V14.01,2013-06-01 02:13:00,
2013-05-31 22:18:00,70.4,57.5,30.10,ESE,117,0.0,0.0,64,0.00,,,0.00,VWS V14.01,2013-06-01 02:18:00,
2013-05-31 22:24:00,70.2,57.5,30.10,ESE,117,0.0,0.0,64,0.00,,,0.00,VWS V14.01,2013-06-01 02:24:00,
2013-05-31 22:29:00,70.2,57.5,30.10,ESE,117,0.0,0.0,64,0.00,,,0.00,VWS V14.01,2013-06-01 02:29:00,
2013-05-31 22:34:00,70.0,57.4,30.10,ESE,117,0.0,0.0,64,0.00,,,0.00,VWS V14.01,2013-06-01 02:34:00,
2013-05-31 22:39:00,69.9,57.2,30.09,ESE,117,0.0,0.0,64,0.00,,,0.00,VWS V14.01,2013-06-01 02:39:00,
2013-05-31 22:44:00,69.9,57.2,30.09,ESE,117,0.0,0.0,64,0.00,,,0.00,VWS V14.01,2013-06-01 02:44:00,
2013-05-31 22:49:00,69.8,57.0,30.09,ESE,117,0.0,0.0,64,0.00,,,0.00,VWS V14.01,2013-06-01 02:49:00,
2013-05-31 22:54:00,69.8,57.2,30.09,ESE,117,0.0,0.0,64,0.00,,,0.00,VWS V14.01,2013-06-01 02:54:00,
2013-05-31 22:59:00,69.8,57.2,30.09,ESE,117,0.0,0.0,64,0.00,,,0.00,VWS V14.01,2013-06-01 02:59:00,
2013-05-31 23:04:00,69.5,56.8,30.09,ESE,117,0.0,0.0,64,0.00,,,0.00,VWS V14.01,2013-06-01 03:04:00,
2013-05-31 23:09:00,69.5,57.0,30.09,ESE,117,0.0,0.0,64,0.00,,,0.00,VWS V14.01,2013-06-01 03:09:00,
2013-05-31 23:14:00,69.3,57.0,30.08,ESE,117,0.0,0.0,65,0.00,,,0.00,VWS V14.01,2013-06-01 03:14:00,
2013-05-31 23:19:00,69.3,57.0,30.08,ESE,117,0.0,0.0,65,0.00,,,0.00,VWS V14.01,2013-06-01 03:19:00,
2013-05-31 23:24:00,69.0,57.0,30.08,ESE,117,0.0,0.0,66,0.00,,,0.00,VWS V14.01,2013-06-01 03:24:00,
2013-05-31 23:29:00,69.0,57.1,30.08,ESE,117,0.0,0.0,66,0.00,,,0.00,VWS V14.01,2013-06-01 03:29:00,
2013-05-31 23:34:00,68.8,57.0,30.08,ESE,117,0.0,0.0,66,0.00,,,0.00,VWS V14.01,2013-06-01 03:34:00,
2013-05-31 23:39:00,68.8,57.2,30.08,ESE,117,0.0,0.0,66,0.00,,,0.00,VWS V14.01,2013-06-01 03:39:00,
2013-05-31 23:44:00,68.7,57.2,30.08,ESE,117,0.0,0.0,67,0.00,,,0.00,VWS V14.01,2013-06-01 03:44:00,
2013-05-31 23:49:00,68.6,57.2,30.08,ESE,117,0.0,0.0,67,0.00,,,0.00,VWS V14.01,2013-06-01 03:49:00,
2013-05-31 23:54:00,68.5,57.2,30.08,ESE,117,0.0,0.0,67,0.00,,,0.00,VWS V14.01,2013-06-01 03:54:00,
2013-05-31 23:59:00,68.6,57.4,30.08,ESE,117,0.0,0.0,68,0.00,,,0.00,VWS V14.01,2013-06-01 03:59:00,